DW3649 Athens GR current weather conditions

sailwx.info

Wind from 038 at 4 knots

Air temperature 28.9° C
Dewpoint 10.5° C

Last reported at 2018-Jun-20 15:07 UTC.
Time now 2018-Jun-20 15:36 UTC

Location: N 37°58' E 023°45'.
View on Google Maps.

See reports from other nearby stations

  
Tides and Currents Weather Stations Pressure Air Temp Water Temp Dewpoint Dewpoint Depression Visibility Wind Speed Wind Dir Waves Ship Positions
date/time (UTC)wind fromknots sea level pressurealtimeterstation pressurevisibilityair tempwater tempwave heightnotes
2018-Jun-20 15:07 038 4 28.9
2018-Jun-20 14:52 355 4 28.9
2018-Jun-20 14:37 021 4 28.3
2018-Jun-20 14:22 057 4 28.9
2018-Jun-20 14:07 309 4 28.9
2018-Jun-20 13:52 355 3 28.9
2018-Jun-20 13:37 038 4 28.9
2018-Jun-20 13:22 030 5 28.9
2018-Jun-20 13:07 324 4 29.4
2018-Jun-20 12:52 005 6 28.9
2018-Jun-20 12:37 355 5 29.4
2018-Jun-20 12:22 037 5 29.4
2018-Jun-20 12:07 336 4 29.4
2018-Jun-20 11:37 350 5 29.4
2018-Jun-20 11:22 062 6 28.9
2018-Jun-20 11:07 020 5 28.9
2018-Jun-20 10:52 329 6 28.9
2018-Jun-20 10:37 009 6 28.3
2018-Jun-20 10:22 019 6 28.9
2018-Jun-20 10:07 334 6 28.9
2018-Jun-20 09:52 029 6 28.9
2018-Jun-20 09:37 327 5 28.3
2018-Jun-20 09:22 042 5 28.3
2018-Jun-20 09:07 038 5 28.3
2018-Jun-20 08:52 347 5 28.3
2018-Jun-20 08:37 053 5 27.8
2018-Jun-20 08:22 355 4 27.8
2018-Jun-20 08:07 038 3 27.8
2018-Jun-20 07:52 355 2 27.8
2018-Jun-20 07:37 341 3 27.8
2018-Jun-20 07:22 038 4 27.2
2018-Jun-20 07:06 017 4 26.7
2018-Jun-20 06:51 036 5 26.7
2018-Jun-20 06:36 360 4 26.1
2018-Jun-20 06:21 355 3 26.1
2018-Jun-20 06:06 350 3 25.6
2018-Jun-20 05:51 005 3 25.6
2018-Jun-20 05:36 005 2 25.0
2018-Jun-20 05:21 355 1 24.4
2018-Jun-20 05:06 346 1 23.9
2018-Jun-20 04:51 031 1 23.9
2018-Jun-20 04:36 030 0 23.3
2018-Jun-20 04:21 031 1 22.8
2018-Jun-20 04:06 031 2 22.8
2018-Jun-20 03:51 033 2 22.8
2018-Jun-20 03:36 033 2 22.8
2018-Jun-20 03:21 005 1 22.8
2018-Jun-20 03:06 005 1 22.8
2018-Jun-20 02:51 009 1 22.8
2018-Jun-20 02:36 015 2 23.3
2018-Jun-20 02:21 031 2 23.3
2018-Jun-20 02:06 024 0 23.3
2018-Jun-20 01:51 024 1 23.3
2018-Jun-20 01:36 025 2 23.3
2018-Jun-20 01:21 036 2 23.3
2018-Jun-20 01:06 045 1 23.3
2018-Jun-20 00:51 025 1 23.3
2018-Jun-20 00:36 018 1 23.9
2018-Jun-20 00:21 334 1 23.9
2018-Jun-20 00:06 039 1 23.9
2018-Jun-19 23:51 026 2 23.9
2018-Jun-19 23:36 044 0 23.9
2018-Jun-19 23:21 044 0 23.9
2018-Jun-19 23:06 044 0 23.9
2018-Jun-19 22:51 044 0 23.9
2018-Jun-19 22:36 044 0 23.9
2018-Jun-19 22:21 044 0 23.9
2018-Jun-19 22:06 044 0 23.9
2018-Jun-19 21:51 044 0 23.9
2018-Jun-19 21:36 042 1 23.9
2018-Jun-19 21:21 041 0 24.4
2018-Jun-19 21:06 041 0 24.4
2018-Jun-19 20:50 041 1 24.4
2018-Jun-19 20:35 041 0 24.4
2018-Jun-19 20:20 041 24.4
2018-Jun-19 20:06 041 0 24.4
2018-Jun-19 19:50 041 0 24.4
2018-Jun-19 19:35 041 0 25.0
2018-Jun-19 19:20 041 1 25.0
2018-Jun-19 19:05 005 1 25.0
2018-Jun-19 18:50 005 0 25.0
2018-Jun-19 18:35 005 0 25.6
2018-Jun-19 18:20 029 1 25.6
2018-Jun-19 18:05 023 2 25.6
2018-Jun-19 17:50 345 3 25.6
2018-Jun-19 17:35 026 3 26.1
2018-Jun-19 17:20 324 2 26.7
2018-Jun-19 17:05 038 3 26.7
2018-Jun-19 16:50 034 3 27.2
2018-Jun-19 16:35 337 4 27.2
2018-Jun-19 16:20 331 3 27.2
2018-Jun-19 16:05 355 4 27.2
2018-Jun-19 15:50 329 5 27.8
2018-Jun-19 15:35 355 3 27.8
2018-Jun-19 15:20 350 5 27.8
2018-Jun-19 15:05 355 5 27.8
2018-Jun-19 14:50 024 4 27.8
2018-Jun-19 14:35 016 4 28.3
2018-Jun-19 14:20 096 4 28.3
2018-Jun-19 14:05 027 5 28.3
2018-Jun-19 13:50 005 5 28.3
2018-Jun-19 13:35 010 4 28.9
2018-Jun-19 13:20 355 5 28.9
2018-Jun-19 13:05 019 5 28.3
2018-Jun-19 12:50 323 5 28.3
2018-Jun-19 12:35 031 5 27.8
2018-Jun-19 12:20 340 6 27.8
2018-Jun-19 12:05 360 5 28.3
2018-Jun-19 11:50 342 5 27.8
2018-Jun-19 11:35 312 6 27.8
2018-Jun-19 11:20 339 5 28.3
2018-Jun-19 11:05 338 5 28.3
2018-Jun-19 10:50 039 6 27.8
2018-Jun-19 10:35 031 5 28.3
2018-Jun-19 10:20 053 5 28.3
2018-Jun-19 10:05 337 6 27.8
2018-Jun-19 09:50 333 5 27.8
2018-Jun-19 09:35 005 5 27.8
2018-Jun-19 09:20 355 5 27.2
2018-Jun-19 09:05 058 3 27.8
2018-Jun-19 08:50 053 5 27.2
2018-Jun-19 08:35 027 4 27.2
2018-Jun-19 08:20 350 4 26.7
2018-Jun-19 08:05 333 5 26.7
2018-Jun-19 07:50 036 5 26.1
2018-Jun-19 07:35 067 4 26.1
2018-Jun-19 07:19 334 4 25.6
2018-Jun-19 07:04 331 4 24.4
2018-Jun-19 06:49 355 4 25.0
2018-Jun-19 06:34 030 4 25.0
2018-Jun-19 06:19 011 4 25.0
2018-Jun-19 06:04 032 1 25.0
2018-Jun-19 05:49 037 1 24.4
2018-Jun-19 05:34 036 0 23.9
2018-Jun-19 05:19 035 1 23.3
2018-Jun-19 05:04 038 2 23.3
2018-Jun-19 04:49 030 2 22.8
2018-Jun-19 04:34 033 2 22.8
2018-Jun-19 04:19 049 1 22.2
2018-Jun-19 04:04 169 0 22.2
2018-Jun-19 03:49 211 21.1
2018-Jun-19 03:34 213 21.1
2018-Jun-19 03:19 213 21.1
2018-Jun-19 03:04 213 21.1
2018-Jun-19 02:49 213 21.1
2018-Jun-19 02:34 213 21.1
2018-Jun-19 02:19 213 21.1
2018-Jun-19 02:04 213 21.1
2018-Jun-19 01:49 213 21.1
2018-Jun-19 01:34 213 21.1
2018-Jun-19 01:19 213 0 21.1
2018-Jun-19 01:04 213 21.1
2018-Jun-19 00:49 213 0 21.1
2018-Jun-19 00:34 213 21.1
2018-Jun-19 00:19 213 21.1
2018-Jun-19 00:04 213 21.1
2018-Jun-18 23:49 213 21.1
2018-Jun-18 23:34 213 21.7
2018-Jun-18 23:19 213 21.7
2018-Jun-18 23:04 213 0 21.7
2018-Jun-18 22:49 213 0 21.7
2018-Jun-18 22:34 215 0 21.7
2018-Jun-18 22:19 215 0 21.7
2018-Jun-18 22:04 216 0 21.7
2018-Jun-18 21:49 216 21.7
2018-Jun-18 21:34 216 21.7
2018-Jun-18 21:19 216 21.7
2018-Jun-18 21:04 216 21.7
2018-Jun-18 20:49 216 21.7
2018-Jun-18 20:34 216 21.7
2018-Jun-18 20:19 216 22.2
2018-Jun-18 20:04 216 22.2
2018-Jun-18 19:49 216 22.2
2018-Jun-18 19:34 216 22.2
2018-Jun-18 19:18 216 22.2
2018-Jun-18 19:03 216 22.2
2018-Jun-18 18:48 216 22.2
2018-Jun-18 18:33 216 22.8
2018-Jun-18 18:18 216 22.8
2018-Jun-18 18:03 216 23.3
2018-Jun-18 17:48 216 23.3
2018-Jun-18 17:33 216 23.3
2018-Jun-18 17:18 216 23.9
2018-Jun-18 17:03 216 23.9
2018-Jun-18 16:48 216 23.9
2018-Jun-18 16:33 216 0 23.3
2018-Jun-18 16:18 216 0 23.3
2018-Jun-18 16:03 216 1 23.3
2018-Jun-18 15:48 216 3 23.3
2018-Jun-18 15:33 216 3 23.9
2018-Jun-18 15:18 219 2 23.9
2018-Jun-18 15:03 219 1 23.9